Location: Newark
(45.4422°N, 16.2769°E)
Time: 00:05:12
(UTC+00:00)

Tiros 1 - All Passes

Search period start: 13 December 2019 00:00
Search period end: 23 December 2019 00:00
Orbit: 630 x 664 km, 48.4° (Epoch: 12 December)

Date Brightness Start Highest point End Pass type
(mag) Time Alt. Az. Time Alt. Az. Time Alt. Az.
13 Dec - 03:39:15 10° SSW 03:43:32 34° SE 03:47:46 10° E visible
13 Dec - 05:20:45 10° WSW 05:25:29 82° NNW 05:30:11 10° ENE visible
13 Dec - 07:03:19 10° WNW 07:07:58 60° N 07:12:34 10° E daylight
13 Dec - 08:45:41 10° WNW 08:50:22 82° SSW 08:55:01 10° ESE daylight
13 Dec - 10:28:24 10° W 10:32:08 24° SW 10:35:50 10° SSE daylight
14 Dec - 02:24:54 10° S 02:27:50 16° SE 02:30:46 10° E visible
14 Dec - 04:04:43 10° SW 04:09:24 62° SSE 04:14:02 10° ENE visible
14 Dec - 05:46:58 10° W 05:51:40 64° N 05:56:19 10° ENE visible
14 Dec - 07:29:30 10° WNW 07:34:12 69° NNE 07:38:50 10° E daylight
14 Dec - 09:11:51 10° WNW 09:16:21 49° SSW 09:20:48 10° SE daylight
14 Dec - 10:56:13 10° WSW 10:57:42 11° SW 10:59:11 10° SSW daylight
15 Dec - 02:49:17 10° SSW 02:53:30 32° SE 02:57:42 10° E visible
15 Dec - 04:30:41 10° WSW 04:35:26 85° NNW 04:40:09 10° ENE visible
15 Dec - 06:13:15 10° W 06:17:55 59° N 06:22:31 10° E daylight
15 Dec - 07:55:38 10° WNW 08:00:20 86° SSW 08:05:00 10° ESE daylight
15 Dec - 09:38:17 10° W 09:42:08 26° SW 09:45:57 10° SSE daylight
16 Dec - 01:35:08 10° S 01:37:51 15° SE 01:40:34 10° E visible
16 Dec - 03:14:41 10° SW 03:19:22 58° SSE 03:24:00 10° ENE visible
16 Dec - 04:56:53 10° W 05:01:37 65° N 05:06:17 10° ENE visible
16 Dec - 06:39:28 10° WNW 06:44:09 67° NNE 06:48:47 10° E daylight
16 Dec - 08:21:47 10° WNW 08:26:19 52° SSW 08:30:49 10° SE daylight
16 Dec - 10:05:46 10° WSW 10:07:43 13° SW 10:09:40 10° SSW daylight
17 Dec - 01:59:21 10° SSW 02:03:29 30° SE 02:07:37 10° E visible
17 Dec - 03:40:37 10° WSW 03:45:23 88° NNW 03:50:07 10° ENE visible
17 Dec - 05:23:10 10° W 05:27:51 59° N 05:32:29 10° E visible
17 Dec - 07:05:35 10° WNW 07:10:18 89° SSW 07:14:58 10° ESE daylight
17 Dec - 08:48:10 10° W 08:52:08 28° SW 08:56:04 10° SSE daylight
18 Dec - 00:45:24 10° SSE 00:47:51 14° SE 00:50:19 10° ESE night (unlit)
18 Dec - 02:24:40 10° SW 02:29:20 55° SSE 02:33:57 10° ENE visible
18 Dec - 04:06:49 10° W 04:11:33 66° N 04:16:14 10° ENE visible
18 Dec - 05:49:23 10° WNW 05:54:06 66° N 05:58:45 10° E visible
18 Dec - 07:31:43 10° WNW 07:36:18 55° SSW 07:40:51 10° SE daylight
18 Dec - 09:15:25 10° WSW 09:17:45 14° SW 09:20:04 10° SSW daylight
19 Dec - 01:09:24 10° SSW 01:13:29 28° SE 01:17:32 10° E night (unlit)
19 Dec - 02:50:33 10° WSW 02:55:20 88° SSE 03:00:05 10° ENE visible
19 Dec - 04:33:05 10° W 04:37:47 59° N 04:42:27 10° E visible
19 Dec - 06:15:31 10° WNW 06:20:15 88° NNE 06:24:56 10° ESE daylight
19 Dec - 07:58:03 10° W 08:02:08 30° SW 08:06:09 10° SSE daylight
19 Dec - 23:55:42 10° SSE 23:57:52 13° SE 00:00:01 10° ESE night (unlit)
20 Dec - 01:34:39 10° SW 01:39:18 52° SSE 01:43:54 10° ENE visible
20 Dec - 03:16:44 10° W 03:21:29 68° NNW 03:26:12 10° ENE visible
20 Dec - 04:59:19 10° WNW 05:04:02 65° N 05:08:42 10° E visible
20 Dec - 06:41:39 10° WNW 06:46:17 59° SSW 06:50:51 10° SE daylight
20 Dec - 08:25:08 10° W 08:27:46 15° SW 08:30:23 10° S daylight
21 Dec - 00:19:29 10° SSW 00:23:28 26° SE 00:27:26 10° E night (unlit)
21 Dec - 02:00:30 10° WSW 02:05:18 85° SSE 02:10:03 10° ENE visible
21 Dec - 03:43:01 10° W 03:47:44 60° N 03:52:24 10° E visible
21 Dec - 05:25:27 10° WNW 05:30:13 85° NNE 05:34:54 10° ESE visible
21 Dec - 07:07:57 10° W 07:12:08 32° SW 07:16:15 10° SSE daylight
21 Dec - 23:06:07 10° SSE 23:07:52 12° SE 23:09:38 10° ESE night (unlit)
22 Dec - 00:44:39 10° SW 00:49:16 49° SSE 00:53:51 10° ENE night (unlit)
22 Dec - 02:26:39 10° W 02:31:25 70° NNW 02:36:09 10° ENE visible
22 Dec - 04:09:15 10° WNW 04:13:58 64° N 04:18:39 10° E visible
22 Dec - 05:51:35 10° WNW 05:56:15 62° SSW 06:00:52 10° SE visible
22 Dec - 07:34:54 10° W 07:37:47 16° SW 07:40:38 10° S daylight
22 Dec - 23:29:34 10° SSW 23:33:27 25° SE 23:37:19 10° E night (unlit)
